SCP
-0 -0 -0 -0 -0 -0 0 0 -0 -0 -0 -0 -0 0 -0 -0 -0 -0 -0 0 0 0 0 0 0 -0 -0 -0 -0 -0 -0 -0 -0 -0 0 0 0 0 0 -0 -0 0 -0
-1 -0 -0 -0 -0 -0 0 0 -0 -0 -0 -0 -0 -0 -0 0 0 -0 0 0 0 0 0 0 0 -0 -0 -0 -0 -0 -0 -0 -0 0 0 0 0 0 -0 -0 -0 -0 -0
-0 -0 -0 -0 -0 -0 -0 -0 -0 -0 -0 -0 -0 -0 -0 0 0 -0 0 0 0 0 0 0 -0 -0 -0 -0 -0 -0 -0 -0 -0 0 0 0 0 0 0 -0 -0 -0 0
-0 0 -0 -0 -0 -0 -0 -0 -0 -0 -0 -0 -0 -0 -0 -0 -0 -0 0 0 0 0 0 -0 -0 -0 -0 -0 -0 -0 -0 -0 -0 0 0 0 0 0 0 0 0 -0 -0
-0 0 0 -0 -0 -0 -0 -0 -0 -0 -0 -0 -0 -0 -0 -0 -0 -0 0 0 0 0 0 -0 -0 -0 -0 -0 -0 -0 -0 -0 -0 0 0 0 0 0 0 0 0 0 -0
-0 0 -0 -0 -0 -0 -0 -0 -0 -0 -0 -0 -0 -0 -0 -0 -0 0 -0 0 0 0 -0 -0 -0 -0 -0 -0 -0 -0 -0 -0 -0 0 0 -0 0 0 0 0 0 0 0
0 0 0 0 -0 -0 -0 -0 -0 -0 -0 -0 -0 -0 -0 -0 0 0 -0 0 -0 0 0 -0 0 0 0 -0 -0 -0 -0 -0 -0 0 0 0 0 0 0 0 0 0 0
1 0 0 0 0 0 -0 -0 -0 -0 -0 -0 -0 0 0 0 0 0 0 0 0 0 0 0 0 0 0 -0 -0 -0 -0 -0 -0 -0 -0 0 0 0 0 0 0 0 0
1 0 0 0 0 0 0 0 0 0 0 0 0 0 0 0 0 0 0 0 0 0 0 0 0 -0 -0 -0 -0 -0 -0 -0 -0 -0 -0 0 0 0 0 0 0 0 0
0 0 0 0 0 0 0 0 0 0 0 0 0 0 0 0 0 0 0 0 0 0 0 0 0 0 0 0 0 0 0 0 0 0 -0 0 0 1 1 0 0 0 0
0 0 0 0 0 0 0 0 1 0 0 0 0 0 0 0 0 0 0 0 0 0 0 0 0 0 0 0 0 0 0 0 0 0 0 0 0 0 0 0 0 0 0
1 0 0 0 0 0 0 1 0 0 0 0 0 0 0 -0 0 0 0 0 0 0 0 0 0 0 0 0 0 0 0 0 0 0 0 0 0 0 0 0 0 0 0
0 0 0 1 0 0 0 0 0 0 0 0 0 0 -0 -0 0 0 0 0 0 0 0 0 0 0 0 0 0 0 0 0 0 0 0 1 1 1 0 0 0 0 0
0 1 1 1 1 0 1 1 0 0 0 0 0 0 0 -0 0 0 0 0 0 0 0 0 0 0 0 0 0 0 0 0 0 0 0 1 1 1 1 1 1 0 0
0 0 1 2 2 -0 4 1 0 0 0 0 0 0 0 -0 0 0 0 0 0 0 0 0 0 0 0 0 0 0 0 0 0 0 0 1 1 1 1 1 1 1 1
1 0 0 0 4 1 2 2 1 0 0 0 1 1 0 0 0 1 0 0 0 1 1 0 0 1 1 1 1 1 1 1 1 1 1 1 1 0 1 1 1 1 1
0 0 0 0 0 2 -0 3 2 1 1 1 1 1 1 0 0 1 1 1 1 1 1 1 1 1 1 1 1 0 1 1 1 1 1 1 1 1 0 1 1 1 1
0 0 -0 0 0 0 0 3 3 2 1 2 1 3 2 1 1 2 2 2 1 2 2 1 2 2 1 2 1 1 2 1 1 1 2 2 2 2 2 1 1 1 1
0 0 -0 0 0 -0 1 2 3 2 2 1 2 2 3 2 2 2 2 2 2 2 1 2 3 1 2 3 1 0 1 1 0 0 0 0 1 3 3 2 1 1 1
0 0 0 -0 0 0 0 1 1 1 1 1 2 2 4 3 2 3 3 4 5 2 1 2 1 2 2 1 1 0 1 0 1 0 0 0 0 0 0 1 2 2 1
0 0 0 0 0 0 0 -0 -0 1 1 1 2 2 5 5 4 8 2 4 4 4 3 3 3 2 2 1 1 0 0 0 0 0 0 0 0 0 0 0 1 2 2
0 0 0 0 2 3 4 3 2 1 1 2 2 2 6 7 7 5 4 5 2 2 1 2 2 2 1 0 0 0 0 0 0 0 0 0 0 0 0 0 0 0 1
0 1 0 1 1 5 2 3 2 2 3 3 4 9 7 3 7 5 4 2 2 1 3 4 3 2 1 0 0 0 0 0 0 0 0 0 0 0 0 0 0 0 0
0 0 2 1 1 1 2 3 4 4 2 1 1 4 9 7 6 4 3 2 2 3 1 1 3 2 1 0 0 0 0 0 0 0 0 0 0 0 0 0 0 0 0
0 0 0 4 4 5 3 2 1 3 2 2 5 10 12 11 6 4 4 2 2 2 1 1 2 3 1 0 0 0 0 0 0 0 0 0 0 0 0 0 0 0 0
0 0 0 1 5 3 4 4 3 6 6 1 4 5 6 5 2 1 1 1 1 2 2 1 2 2 2 1 0 0 0 0 0 0 0 0 0 0 0 0 0 0 0
Wind_Speed_500mb
40 51 48 46 49 46 42 37 33 31 28 28 27 26 26 26 27 27 29 32 34 30 26 22 20 20 21 22 24 24 26 28 28 28 26 23 19 16 17 16 16 15 9
43 55 51 48 48 46 42 36 32 30 27 27 25 23 24 26 26 26 28 30 30 26 23 18 16 17 19 20 22 23 26 32 32 31 33 37 25 17 16 17 18 8 11
48 55 53 52 50 45 41 36 33 31 29 28 24 21 23 24 25 25 25 27 25 21 19 17 15 16 16 17 18 18 24 33 36 32 25 21 26 22 13 13 14 12 12
54 56 55 52 50 46 41 36 34 33 32 29 24 20 20 21 22 22 23 25 23 20 16 14 14 15 14 15 14 13 19 28 31 27 24 7 20 20 14 10 10 11 12
57 57 55 54 51 46 41 37 36 37 36 32 26 19 18 18 21 21 22 23 21 18 13 13 15 15 14 14 13 11 15 25 28 27 26 8 17 13 10 8 6 9 9
51 55 53 51 48 43 42 39 39 41 39 33 27 20 17 17 22 23 22 21 18 15 13 14 15 14 13 12 12 10 11 18 13 13 4 9 13 8 12 8 6 8 9
48 50 55 52 45 43 41 39 38 40 38 33 27 21 18 19 23 25 24 22 18 15 13 13 13 11 9 9 10 10 8 9 5 21 10 17 11 15 12 9 7 4 4
49 43 55 53 50 43 42 42 42 40 37 32 28 24 21 21 25 28 26 22 18 14 12 11 12 11 10 9 9 10 10 9 7 13 11 17 23 20 15 13 11 9 7
45 40 56 53 50 46 42 41 41 39 37 33 30 26 22 24 28 31 28 25 21 18 15 14 14 13 13 13 13 13 14 15 14 14 13 14 27 27 21 19 17 15 14
30 38 56 54 50 48 47 45 42 39 36 33 31 27 25 28 31 32 30 27 23 20 17 15 14 13 14 15 14 15 18 20 19 17 15 10 27 34 31 30 24 19 19
42 29 41 51 50 48 48 47 44 41 38 35 33 31 30 32 34 34 31 28 25 23 19 17 16 16 17 17 16 15 19 24 25 17 10 20 35 39 39 34 31 30 26
47 38 41 41 47 45 42 48 46 43 41 38 36 34 34 33 32 32 30 27 25 24 23 21 20 21 23 20 19 12 23 19 15 5 13 33 39 43 44 40 35 31 32
42 36 46 45 39 42 39 42 47 45 42 39 37 36 34 30 21 21 24 27 29 29 26 24 23 24 26 25 11 30 23 22 21 22 30 34 41 48 52 44 41 37 34
15 44 49 50 45 49 50 34 46 37 39 37 36 35 36 34 33 27 33 25 15 19 23 24 25 15 19 21 14 32 33 34 37 34 36 39 44 50 57 52 45 43 43
9 12 42 47 44 55 50 40 37 40 28 26 25 32 35 43 34 40 33 30 34 20 13 16 16 19 25 27 32 30 30 33 37 42 47 49 54 56 60 59 54 52 50
10 16 6 44 48 59 50 47 40 45 41 35 34 29 28 36 34 34 33 36 36 32 28 27 23 23 28 29 29 34 34 39 43 46 48 51 51 58 60 62 65 60 58
26 20 42 30 49 56 68 49 49 44 42 38 40 35 32 34 36 37 33 28 31 34 34 36 37 32 37 40 36 25 30 36 39 43 49 51 54 58 54 58 61 62 60
28 27 43 56 41 31 76 55 44 43 38 34 36 36 39 36 43 40 39 35 30 32 34 31 28 31 37 27 27 40 29 29 36 42 48 59 65 63 58 59 60 59 57
14 15 17 18 25 77 81 65 54 40 39 31 33 36 39 38 36 47 39 37 36 36 44 36 40 31 27 23 36 41 34 39 45 49 52 53 42 49 60 65 65 66 67
15 9 14 8 32 81 39 20 27 28 30 29 33 35 43 40 37 44 47 38 45 50 38 12 28 44 43 39 35 36 43 45 46 49 47 43 46 54 64 66 66 68 67
43 19 4 26 25 10 66 13 26 25 29 32 33 36 44 43 39 51 52 46 48 40 42 32 30 32 34 31 32 40 41 38 47 42 48 46 48 48 58 60 63 73 75
57 45 20 23 25 6 15 11 19 17 29 34 31 31 48 43 43 44 45 45 39 43 25 37 50 45 48 38 36 36 43 46 45 28 37 47 56 64 69 67 60 60 67
69 67 29 25 23 24 13 13 22 31 25 17 30 34 45 37 40 46 34 33 23 28 32 34 39 40 37 29 30 31 21 19 44 55 55 52 45 46 50 49 56 57 57
79 69 62 38 22 23 15 17 28 25 20 25 26 24 39 35 28 35 38 35 38 44 44 41 40 39 36 40 34 34 39 44 50 54 50 45 40 47 47 50 55 52 50
80 60 66 44 35 24 20 24 29 32 24 22 22 29 28 34 25 38 36 41 42 45 44 38 32 38 46 44 42 38 45 45 48 51 59 50 46 45 45 52 54 53 52
60 44 59 69 58 37 37 36 46 43 38 34 36 34 28 33 37 40 33 39 42 42 39 40 43 50 53 55 56 51 51 48 53 53 58 55 54 58 46 46 54 51 48
Wind_Direction_500mb
163 157 157 158 158 157 157 156 155 155 149 142 129 114 109 117 119 120 126 130 130 129 122 113 107 105 108 106 102 95 87 82 83 81 80 75 75 84 92 85 85 67 59
162 158 160 161 161 161 161 161 162 160 157 151 137 118 114 120 122 125 128 134 133 132 124 113 105 106 109 110 107 95 87 80 83 74 75 64 55 66 83 84 84 81 73
162 157 162 163 163 163 164 166 168 167 166 160 147 127 118 123 130 133 132 141 144 139 128 118 111 113 116 120 114 105 94 94 85 74 68 49 19 32 59 77 81 80 73
159 159 163 166 166 166 167 169 174 173 171 166 156 136 126 130 139 144 145 146 144 144 138 130 124 124 124 132 134 121 106 100 82 69 63 91 320 346 27 56 79 77 71
158 163 164 165 167 167 168 170 177 179 175 171 162 148 137 140 151 152 151 153 151 152 159 152 146 143 141 147 152 147 124 110 94 78 63 165 284 325 355 31 48 73 63
158 163 164 165 167 169 169 172 178 178 176 173 169 160 154 159 164 164 165 166 169 172 178 166 162 161 161 162 164 162 142 131 111 69 39 307 261 316 335 354 20 43 47
155 164 163 164 167 170 169 169 175 176 177 176 177 173 174 175 175 176 177 183 186 181 186 173 176 179 182 187 194 201 195 165 174 95 92 322 298 300 304 317 332 349 8
164 168 164 166 168 171 172 171 174 177 180 181 183 186 188 185 183 186 187 187 189 190 196 190 193 199 209 219 227 238 246 244 198 161 140 268 281 289 294 297 297 299 293
175 178 168 170 172 171 173 173 176 180 184 187 191 195 196 193 190 190 192 192 193 199 205 207 211 216 225 235 244 254 262 265 261 262 190 253 280 289 287 289 295 295 294
159 180 174 175 176 176 174 176 178 182 187 191 196 201 202 197 195 196 196 201 201 208 214 221 230 238 246 252 259 269 278 279 281 284 283 230 269 281 290 290 279 279 283
163 179 177 179 180 181 181 180 182 184 188 193 199 202 203 200 197 199 201 207 210 216 223 230 241 252 257 262 269 281 296 299 292 283 306 277 272 276 287 290 285 280 267
168 166 184 183 185 178 186 183 184 186 190 195 198 199 197 198 201 207 208 216 223 228 230 236 244 254 260 268 277 278 314 313 303 280 264 264 271 280 286 287 282 282 277
179 177 187 187 192 172 185 190 190 190 194 196 198 198 197 186 204 209 225 229 234 237 241 246 251 267 276 275 252 292 291 297 306 294 267 267 271 276 284 286 286 281 276
171 184 193 191 196 174 195 205 197 194 196 199 200 201 195 182 193 226 210 238 256 272 244 263 257 272 294 289 271 247 252 248 243 253 264 274 280 281 282 281 278 277 277
167 111 173 191 202 179 194 206 190 187 199 199 207 213 201 187 194 211 212 220 244 263 264 264 269 253 265 270 275 280 279 279 279 273 268 263 268 272 280 287 283 274 268
336 277 242 171 209 194 191 197 192 183 197 191 208 225 217 198 193 220 214 213 217 221 246 249 260 256 260 267 270 273 276 274 274 277 280 278 275 274 276 282 286 287 278
22 313 282 229 187 207 201 185 197 196 188 194 202 220 228 216 199 221 219 230 224 225 224 229 230 231 238 255 265 273 286 289 298 294 297 293 294 297 289 283 285 288 287
52 19 346 231 219 223 221 195 190 190 204 189 203 210 227 235 211 215 214 218 231 232 236 239 242 251 245 274 274 272 277 287 286 291 292 290 287 284 285 286 282 285 287
84 1 346 250 229 253 208 197 187 194 193 206 209 214 233 244 246 220 216 221 222 229 227 224 243 257 269 263 270 267 276 277 272 273 274 275 285 289 287 287 285 284 280
223 354 17 329 243 265 223 176 189 191 209 204 217 220 231 238 248 234 217 214 222 226 259 240 259 253 252 247 257 259 269 276 283 300 303 303 300 291 281 283 284 283 280
225 247 331 320 351 99 169 187 217 216 215 217 223 231 239 229 233 244 234 216 223 234 250 234 256 255 271 273 279 278 284 283 285 299 307 298 293 294 285 281 283 279 273
222 215 259 272 293 1 192 224 233 210 226 232 228 230 233 238 229 251 260 247 235 240 237 230 244 247 256 258 261 277 286 292 285 286 272 283 287 286 286 284 286 297 267
212 211 222 239 299 289 186 219 238 240 221 215 221 235 236 225 241 251 247 232 238 230 221 245 258 262 266 264 251 268 285 267 294 295 300 304 303 311 317 316 301 294 307
207 211 213 218 239 316 301 255 250 234 232 240 250 226 246 269 273 237 238 239 232 235 242 237 254 265 268 271 270 256 264 277 287 295 295 302 304 310 312 309 312 310 294
205 207 198 205 246 277 285 287 271 252 239 229 263 233 230 236 227 225 232 223 239 239 242 235 231 247 260 267 268 268 265 272 279 285 295 299 299 304 298 298 307 297 298
197 216 220 220 237 254 249 276 259 269 265 255 257 236 220 222 236 244 222 244 248 252 253 249 248 249 254 263 264 260 257 262 270 278 285 291 292 296 298 294 297 304 308
Wind_Speed_850mb
40 51 48 46 49 46 42 37 33 31 28 28 27 26 26 26 27 27 29 32 34 30 26 22 20 20 21 22 24 24 26 28 28 28 26 23 19 16 17 16 16 15 9
43 55 51 48 48 46 42 36 32 30 27 27 25 23 24 26 26 26 28 30 30 26 23 18 16 17 19 20 22 23 26 32 32 31 33 37 25 17 16 17 18 8 11
48 55 53 52 50 45 41 36 33 31 29 28 24 21 23 24 25 25 25 27 25 21 19 17 15 16 16 17 18 18 24 33 36 32 25 21 26 22 13 13 14 12 12
54 56 55 52 50 46 41 36 34 33 32 29 24 20 20 21 22 22 23 25 23 20 16 14 14 15 14 15 14 13 19 28 31 27 24 7 20 20 14 10 10 11 12
57 57 55 54 51 46 41 37 36 37 36 32 26 19 18 18 21 21 22 23 21 18 13 13 15 15 14 14 13 11 15 25 28 27 26 8 17 13 10 8 6 9 9
51 55 53 51 48 43 42 39 39 41 39 33 27 20 17 17 22 23 22 21 18 15 13 14 15 14 13 12 12 10 11 18 13 13 4 9 13 8 12 8 6 8 9
48 50 55 52 45 43 41 39 38 40 38 33 27 21 18 19 23 25 24 22 18 15 13 13 13 11 9 9 10 10 8 9 5 21 10 17 11 15 12 9 7 4 4
49 43 55 53 50 43 42 42 42 40 37 32 28 24 21 21 25 28 26 22 18 14 12 11 12 11 10 9 9 10 10 9 7 13 11 17 23 20 15 13 11 9 7
45 40 56 53 50 46 42 41 41 39 37 33 30 26 22 24 28 31 28 25 21 18 15 14 14 13 13 13 13 13 14 15 14 14 13 14 27 27 21 19 17 15 14
30 38 56 54 50 48 47 45 42 39 36 33 31 27 25 28 31 32 30 27 23 20 17 15 14 13 14 15 14 15 18 20 19 17 15 10 27 34 31 30 24 19 19
42 29 41 51 50 48 48 47 44 41 38 35 33 31 30 32 34 34 31 28 25 23 19 17 16 16 17 17 16 15 19 24 25 17 10 20 35 39 39 34 31 30 26
47 38 41 41 47 45 42 48 46 43 41 38 36 34 34 33 32 32 30 27 25 24 23 21 20 21 23 20 19 12 23 19 15 5 13 33 39 43 44 40 35 31 32
42 36 46 45 39 42 39 42 47 45 42 39 37 36 34 30 21 21 24 27 29 29 26 24 23 24 26 25 11 30 23 22 21 22 30 34 41 48 52 44 41 37 34
15 44 49 50 45 49 50 34 46 37 39 37 36 35 36 34 33 27 33 25 15 19 23 24 25 15 19 21 14 32 33 34 37 34 36 39 44 50 57 52 45 43 43
9 12 42 47 44 55 50 40 37 40 28 26 25 32 35 43 34 40 33 30 34 20 13 16 16 19 25 27 32 30 30 33 37 42 47 49 54 56 60 59 54 52 50
10 16 6 44 48 59 50 47 40 45 41 35 34 29 28 36 34 34 33 36 36 32 28 27 23 23 28 29 29 34 34 39 43 46 48 51 51 58 60 62 65 60 58
26 20 42 30 49 56 68 49 49 44 42 38 40 35 32 34 36 37 33 28 31 34 34 36 37 32 37 40 36 25 30 36 39 43 49 51 54 58 54 58 61 62 60
28 27 43 56 41 31 76 55 44 43 38 34 36 36 39 36 43 40 39 35 30 32 34 31 28 31 37 27 27 40 29 29 36 42 48 59 65 63 58 59 60 59 57
14 15 17 18 25 77 81 65 54 40 39 31 33 36 39 38 36 47 39 37 36 36 44 36 40 31 27 23 36 41 34 39 45 49 52 53 42 49 60 65 65 66 67
15 9 14 8 32 81 39 20 27 28 30 29 33 35 43 40 37 44 47 38 45 50 38 12 28 44 43 39 35 36 43 45 46 49 47 43 46 54 64 66 66 68 67
43 19 4 26 25 10 66 13 26 25 29 32 33 36 44 43 39 51 52 46 48 40 42 32 30 32 34 31 32 40 41 38 47 42 48 46 48 48 58 60 63 73 75
57 45 20 23 25 6 15 11 19 17 29 34 31 31 48 43 43 44 45 45 39 43 25 37 50 45 48 38 36 36 43 46 45 28 37 47 56 64 69 67 60 60 67
69 67 29 25 23 24 13 13 22 31 25 17 30 34 45 37 40 46 34 33 23 28 32 34 39 40 37 29 30 31 21 19 44 55 55 52 45 46 50 49 56 57 57
79 69 62 38 22 23 15 17 28 25 20 25 26 24 39 35 28 35 38 35 38 44 44 41 40 39 36 40 34 34 39 44 50 54 50 45 40 47 47 50 55 52 50
80 60 66 44 35 24 20 24 29 32 24 22 22 29 28 34 25 38 36 41 42 45 44 38 32 38 46 44 42 38 45 45 48 51 59 50 46 45 45 52 54 53 52
60 44 59 69 58 37 37 36 46 43 38 34 36 34 28 33 37 40 33 39 42 42 39 40 43 50 53 55 56 51 51 48 53 53 58 55 54 58 46 46 54 51 48
Wind_Direction_850mb
163 157 157 158 158 157 157 156 155 155 149 142 129 114 109 117 119 120 126 130 130 129 122 113 107 105 108 106 102 95 87 82 83 81 80 75 75 84 92 85 85 67 59
162 158 160 161 161 161 161 161 162 160 157 151 137 118 114 120 122 125 128 134 133 132 124 113 105 106 109 110 107 95 87 80 83 74 75 64 55 66 83 84 84 81 73
162 157 162 163 163 163 164 166 168 167 166 160 147 127 118 123 130 133 132 141 144 139 128 118 111 113 116 120 114 105 94 94 85 74 68 49 19 32 59 77 81 80 73
159 159 163 166 166 166 167 169 174 173 171 166 156 136 126 130 139 144 145 146 144 144 138 130 124 124 124 132 134 121 106 100 82 69 63 91 320 346 27 56 79 77 71
158 163 164 165 167 167 168 170 177 179 175 171 162 148 137 140 151 152 151 153 151 152 159 152 146 143 141 147 152 147 124 110 94 78 63 165 284 325 355 31 48 73 63
158 163 164 165 167 169 169 172 178 178 176 173 169 160 154 159 164 164 165 166 169 172 178 166 162 161 161 162 164 162 142 131 111 69 39 307 261 316 335 354 20 43 47
155 164 163 164 167 170 169 169 175 176 177 176 177 173 174 175 175 176 177 183 186 181 186 173 176 179 182 187 194 201 195 165 174 95 92 322 298 300 304 317 332 349 8
164 168 164 166 168 171 172 171 174 177 180 181 183 186 188 185 183 186 187 187 189 190 196 190 193 199 209 219 227 238 246 244 198 161 140 268 281 289 294 297 297 299 293
175 178 168 170 172 171 173 173 176 180 184 187 191 195 196 193 190 190 192 192 193 199 205 207 211 216 225 235 244 254 262 265 261 262 190 253 280 289 287 289 295 295 294
159 180 174 175 176 176 174 176 178 182 187 191 196 201 202 197 195 196 196 201 201 208 214 221 230 238 246 252 259 269 278 279 281 284 283 230 269 281 290 290 279 279 283
163 179 177 179 180 181 181 180 182 184 188 193 199 202 203 200 197 199 201 207 210 216 223 230 241 252 257 262 269 281 296 299 292 283 306 277 272 276 287 290 285 280 267
168 166 184 183 185 178 186 183 184 186 190 195 198 199 197 198 201 207 208 216 223 228 230 236 244 254 260 268 277 278 314 313 303 280 264 264 271 280 286 287 282 282 277
179 177 187 187 192 172 185 190 190 190 194 196 198 198 197 186 204 209 225 229 234 237 241 246 251 267 276 275 252 292 291 297 306 294 267 267 271 276 284 286 286 281 276
171 184 193 191 196 174 195 205 197 194 196 199 200 201 195 182 193 226 210 238 256 272 244 263 257 272 294 289 271 247 252 248 243 253 264 274 280 281 282 281 278 277 277
167 111 173 191 202 179 194 206 190 187 199 199 207 213 201 187 194 211 212 220 244 263 264 264 269 253 265 270 275 280 279 279 279 273 268 263 268 272 280 287 283 274 268
336 277 242 171 209 194 191 197 192 183 197 191 208 225 217 198 193 220 214 213 217 221 246 249 260 256 260 267 270 273 276 274 274 277 280 278 275 274 276 282 286 287 278
22 313 282 229 187 207 201 185 197 196 188 194 202 220 228 216 199 221 219 230 224 225 224 229 230 231 238 255 265 273 286 289 298 294 297 293 294 297 289 283 285 288 287
52 19 346 231 219 223 221 195 190 190 204 189 203 210 227 235 211 215 214 218 231 232 236 239 242 251 245 274 274 272 277 287 286 291 292 290 287 284 285 286 282 285 287
84 1 346 250 229 253 208 197 187 194 193 206 209 214 233 244 246 220 216 221 222 229 227 224 243 257 269 263 270 267 276 277 272 273 274 275 285 289 287 287 285 284 280
223 354 17 329 243 265 223 176 189 191 209 204 217 220 231 238 248 234 217 214 222 226 259 240 259 253 252 247 257 259 269 276 283 300 303 303 300 291 281 283 284 283 280
225 247 331 320 351 99 169 187 217 216 215 217 223 231 239 229 233 244 234 216 223 234 250 234 256 255 271 273 279 278 284 283 285 299 307 298 293 294 285 281 283 279 273
222 215 259 272 293 1 192 224 233 210 226 232 228 230 233 238 229 251 260 247 235 240 237 230 244 247 256 258 261 277 286 292 285 286 272 283 287 286 286 284 286 297 267
212 211 222 239 299 289 186 219 238 240 221 215 221 235 236 225 241 251 247 232 238 230 221 245 258 262 266 264 251 268 285 267 294 295 300 304 303 311 317 316 301 294 307
207 211 213 218 239 316 301 255 250 234 232 240 250 226 246 269 273 237 238 239 232 235 242 237 254 265 268 271 270 256 264 277 287 295 295 302 304 310 312 309 312 310 294
205 207 198 205 246 277 285 287 271 252 239 229 263 233 230 236 227 225 232 223 239 239 242 235 231 247 260 267 268 268 265 272 279 285 295 299 299 304 298 298 307 297 298
197 216 220 220 237 254 249 276 259 269 265 255 257 236 220 222 236 244 222 244 248 252 253 249 248 249 254 263 264 260 257 262 270 278 285 291 292 296 298 294 297 304 308